Regional Weather Roundup
Issued by NWS Goodland, KS

Home | Current Version | Previous Version | Graphics & Text | Print | Product List | Glossary On
Versions: 1 2 3 4 5 6 7 8 9 10 11 12 13 14 15 16 17 18 19 20 21 22 23 24 25 26 27 28 29 30 31 32 33 34 35 36 37 38 39 40 41 42 43 44 45 46 47 48 49 50
000
ASUS43 KGLD 161059
RWRGLD

GOODLAND FORECAST AREA HOURLY WEATHER ROUNDUP
NATIONAL WEATHER SERVICE GOODLAND KS
500 AM MDT TUE SEP 16 2014

...OFFICIAL OBSERVATIONS...

CITY           SKY/WX    TMP DP  RH WIND       PRES   REMARKS
GOODLAND KS    CLOUDY    58  54  86 S10       30.19F
HILL CITY KS   MOCLDY    48  45  89 CALM      30.24S
IMPERIAL NEB   PTCLDY    51  48  89 SE7       30.16F
MCCOOK NEB     PTCLDY    50  44  80 S7        30.20F
AKRON CO       CLEAR     53  50  89 SW15      30.13F
BURLINGTON CO  CLOUDY    58  52  80 S15G25    30.19F
LIMON CO       CLOUDY    53  51  93 S16       30.25S
$$

...UNOFFICIAL OBSERVATIONS...

CITY           SKY/WX    TMP DP  RH WIND       PRES   REMARKS
COLBY KS       CLOUDY    55  55 100 SE8       30.21S
GOVE KS          N/A     52  32  46 MISG        N/A
NORTON KS      CLEAR     48  43  81 SE7       30.21F
SHARON SPRINGS   N/A     59  55  87 S7          N/A
WAKEENEY KS      N/A     49  46  89 MISG        N/A
TRENTON NEB      N/A     50  32  50 SE9         N/A
YUMA CO          N/A     52  51  95 S12         N/A
$$



USA.gov is the U.S. government's official web portal to all federal, state and local government web resources and services.